Simultaneous Nadir Overpasses (SNOs) Predictions

Prediction of SNOs between AURA and NPP Satellite Orbit:

Table of predicted SNOs for the next 14.0 days since TLE Epoch: 6/1/2019
Index Date (AURA) Time (AURA) Lat,Lon (AURA) SZA (AURA ) Date (NPP) Time (NPP) Lat,Lon (NPP) SZA (NPP ) Distance(km) Time Diff (sec)
1 06/02/2019 11:25:02 -79.41, 84.91 109.37 06/02/2019 11:24:43 -79.42, 84.95 109.36 0.80 19
2 06/02/2019 12:14:23 79.60,-106.16 70.36 06/02/2019 12:15:22 79.60,-106.26 70.33 1.93 59
3 06/05/2019 02:52:09 79.21, 31.80 70.64 06/05/2019 02:51:00 79.21, 31.80 70.69 0.24 69
4 06/05/2019 03:41:28 -79.53,-158.44 109.83 06/05/2019 03:41:36 -79.53,-158.36 109.85 1.75 8
5 06/07/2019 19:08:34 79.35, 148.63 70.18 06/07/2019 19:07:52 79.36, 148.70 70.20 1.64 42
6 06/07/2019 19:57:54 -79.63, -41.81 110.24 06/07/2019 19:58:29 -79.64, -41.66 110.29 3.10 35
7 06/10/2019 11:25:02 79.34, -95.58 70.00 06/10/2019 11:24:48 79.33, -95.71 70.03 2.80 14
8 06/10/2019 12:14:22 -79.62, 74.00 110.43 06/10/2019 12:15:25 -79.62, 73.92 110.46 1.58 63
9 06/13/2019 02:52:07 -79.26,-147.84 110.05 06/13/2019 02:51:02 -79.27,-147.78 110.01 1.17 65




NCC Satellite Simultaneous Nadir Overpasses (SNOs) Prediction Service
